Location: Holyhead Bay
(53.3667°N, 4.6667°W)
Time: 07:06:42
(UTC+00:00)

Nadezhda 1 Rocket - Pass Details

Date: 24 November 2020
Orbit: 940 x 1006 km, 83.0° (Epoch: 24 January)

Event Time Altitude Azimuth Distance (km) Brightness Sun altitude
Rises 17:04:58 0° 168° (SSE) 3,690 7.2 -8.0°
Reaches altitude 10° 17:07:33 10° 163° (SSE) 2,753 6.5 -8.3°
Maximum altitude 17:13:36 49° 90° (E) 1,271 4.3 -9.1°
Drops below altitude 10° 17:19:44 10° 18° (NNE) 2,795 6.0 -10.0°
Sets 17:22:21 0° 14° (NNE) 3,750 6.7 -10.3°
